SCP
0 0 0 0 0 0 0 0 0 0 0 0 0 0 0 0 0 0 0 0 0 0 0 0 0 0 0 0 0 -0 -0 0 -0 0 0 0 0 0 0 0 0 0 0 0 0 0 0 0 0 0 0 0 0 0
0 0 0 0 0 0 0 0 0 0 0 0 0 0 0 0 0 0 0 0 0 0 -0 -0 -0 -0 -0 -0 0 0 0 -0 0 -0 0 0 0 0 0 0 0 0 0 0 0 0 0 0 0 0 0 0 0 -0
0 0 0 0 0 0 0 0 0 0 0 0 0 0 0 0 0 0 0 0 0 0 0 0 0 0 0 0 0 0 0 -0 -0 -0 0 0 0 0 0 0 0 0 0 0 0 0 0 0 0 0 0 -0 0 0
0 0 0 0 0 0 0 0 0 0 0 0 0 0 0 0 0 0 0 0 0 -0 0 0 0 0 0 0 0 -0 -0 -0 -0 0 0 0 0 0 0 0 0 0 0 0 0 0 0 0 0 -0 -0 -0 0 0
0 0 0 0 0 0 0 0 0 0 0 0 0 0 0 0 0 0 0 0 0 0 0 -0 -0 0 0 0 -0 0 0 0 0 0 0 0 0 0 0 0 0 0 0 0 0 0 0 0 0 0 -0 -0 0 -0
0 0 0 0 0 0 0 0 0 0 0 0 0 0 0 0 0 0 0 0 0 0 -0 0 -0 -0 -0 0 0 0 0 0 0 0 0 0 0 0 0 0 0 0 0 0 0 0 0 0 0 0 -0 -0 -0 -0
0 0 0 0 0 0 0 0 0 -0 -0 0 0 0 0 0 0 0 0 0 0 0 -0 0 0 0 0 0 0 0 0 0 0 0 0 0 0 0 0 0 0 0 0 0 0 0 0 0 0 0 -0 -0 -0 -0
0 0 0 0 0 0 0 0 -0 -0 -0 0 0 0 0 0 0 0 0 0 0 0 -0 -0 -0 -0 0 0 0 0 0 0 0 0 0 0 0 0 0 0 0 0 0 0 0 0 -0 -0 0 -0 -0 -0 -0 -0
0 0 0 0 0 0 0 0 -0 -0 0 0 -0 0 0 0 0 -0 0 -0 0 0 -0 -0 0 -0 -0 -0 0 0 -0 0 0 0 0 0 0 0 -0 -0 0 0 0 0 0 0 0 -0 -0 -0 -0 -0 -0 -0
0 0 -0 0 0 0 0 0 -0 0 0 -0 0 0 0 0 -0 -0 0 -0 0 0 0 -0 -0 -0 -0 -0 0 -0 0 0 0 0 0 0 0 0 0 0 0 0 -0 0 0 0 0 0 -0 -0 -0 -0 -0 -0
0 -0 0 0 0 0 0 0 -0 0 0 0 0 0 0 -0 0 0 0 -0 -0 -0 -0 -0 0 -0 0 -0 0 0 0 0 0 0 0 0 0 0 0 0 0 0 0 -0 0 0 0 0 -0 -0 -0 -0 -0 -0
-0 0 0 0 0 0 0 0 0 0 0 0 0 0 0 0 0 0 0 -0 -0 -0 0 -0 0 -0 0 0 0 0 0 0 0 0 0 0 0 0 0 0 0 0 0 0 0 -0 -0 -0 -0 -0 -0 -0 -0 -0
0 0 0 0 0 0 0 -0 0 -0 0 0 0 0 0 0 -0 0 0 0 -0 -0 -0 -0 -0 -0 -0 0 0 0 0 0 0 0 0 0 0 0 0 0 0 0 -0 -0 -0 -0 -0 -0 -0 -0 -0 -0 0 0
0 0 0 0 0 0 -0 -0 -0 0 0 0 0 0 0 0 0 -0 -0 0 -0 -0 -0 0 0 -0 -0 0 0 0 0 0 0 0 0 0 0 0 0 0 -0 -0 -0 -0 -0 -0 -0 -0 -0 0 0 0 0 0
0 0 0 0 0 0 -0 -0 -0 0 0 0 0 0 0 0 0 -0 -0 -0 -0 0 0 0 -0 0 -0 0 0 0 0 0 0 0 0 0 0 0 0 0 0 0 -0 -0 0 0 0 0 -0 -0 -0 -0 0 0
0 0 0 0 0 -0 -0 0 0 0 0 0 0 0 0 0 0 0 0 -0 -0 -0 0 0 0 -0 0 0 0 0 0 0 0 0 0 0 0 0 0 0 0 0 0 0 0 -0 -0 0 -0 -0 0 0 0 0
0 0 0 0 0 0 0 0 0 0 0 0 0 -0 0 0 0 -0 -0 -0 -0 -0 0 0 -0 -0 -0 0 0 0 0 0 0 0 0 0 0 0 0 0 0 0 0 0 0 0 0 0 0 -0 0 0 0 0
0 0 0 0 0 0 0 0 0 0 0 0 0 0 0 0 0 -0 0 -0 -0 -0 -0 0 0 0 0 0 0 0 0 0 0 0 0 0 -0 0 -0 -0 0 0 0 0 0 0 0 -0 -0 0 0 0 0 0
0 0 0 0 0 0 0 0 0 0 0 0 0 -0 -0 -0 -0 -0 0 -0 0 0 0 0 0 0 0 0 0 0 0 0 0 0 0 0 -0 0 0 0 -0 -0 -0 -0 -0 0 0 0 0 0 0 0 0 0
-0 -0 -0 -0 0 0 0 0 0 0 0 0 0 0 0 0 -0 0 -0 0 0 0 0 0 0 0 0 0 -0 -0 -0 0 0 0 0 0 0 -0 0 -0 0 0 0 0 0 0 0 0 0 0 0 0 0 -0
0 0 0 0 0 0 0 0 0 0 0 0 0 0 0 0 0 0 0 0 0 -0 -0 -0 -0 0 0 0 0 0 0 0 0 0 0 0 0 0 0 0 0 0 0 0 0 0 0 0 -0 0 0 -0 -0 0
0 0 0 0 0 0 0 0 0 0 0 0 0 0 0 0 -0 0 0 0 -0 0 -0 -0 -0 0 0 0 0 0 0 0 0 0 0 0 0 0 0 0 0 0 0 0 0 0 -0 -0 0 0 0 0 0 0
0 0 0 0 0 0 -0 0 0 0 0 0 0 0 0 0 -0 0 0 0 0 0 0 0 0 0 0 0 0 0 0 0 0 0 0 0 0 0 0 0 0 0 0 0 0 0 0 0 0 0 0 0 0 0
0 0 0 -0 -0 0 0 0 0 0 0 0 0 0 0 -0 0 -0 0 0 0 0 0 0 0 0 0 0 0 0 -0 -0 0 0 0 0 0 0 0 0 0 0 0 0 0 0 0 0 0 0 0 0 0 0
0 -0 -0 -0 -0 0 0 0 0 0 0 0 0 0 0 0 0 0 0 0 0 0 -0 0 0 0 0 0 0 -0 -0 0 0 0 -0 -0 -0 0 0 0 0 0 0 0 0 0 0 0 0 0 0 0 0 0
0 -0 -0 -0 0 0 0 0 -0 0 0 0 0 0 0 0 0 0 -0 -0 -0 -0 -0 -0 -0 0 0 0 0 0 0 0 0 0 0 0 0 -0 -0 -0 -0 -0 -0 0 0 0 0 0 0 0 0 0 0 0
-0 -0 0 0 0 0 0 0 0 0 0 0 0 0 0 0 0 0 0 -0 -0 -0 -0 0 0 0 0 0 0 0 0 0 0 0 0 0 -0 -0 -0 -0 -0 -0 0 0 0 0 0 0 0 0 0 0 0 0
0 0 -0 0 0 -0 0 0 0 0 0 0 0 0 0 0 0 0 -0 -0 -0 0 0 0 0 0 0 0 0 0 0 0 0 0 0 -0 -0 -0 -0 -0 0 -0 0 0 0 0 0 0 0 0 0 0 0 0
0 0 0 0 0 0 0 0 0 0 0 0 0 0 0 0 0 0 -0 -0 0 0 0 0 0 0 0 0 0 0 0 0 0 0 -0 -0 -0 -0 -0 -0 -0 0 0 -0 0 0 -0 0 0 0 0 0 0 0
0 0 0 0 0 0 0 0 0 0 0 0 0 0 0 0 0 0 0 0 0 0 0 0 0 0 0 0 0 0 0 -0 -0 -0 0 0 0 -0 -0 -0 -0 0 0 -0 0 0 0 0 0 0 0 0 0 0
0 0 0 0 0 0 0 0 0 0 0 0 0 -0 -0 0 0 0 0 0 0 0 0 0 0 0 0 0 0 0 0 0 -0 0 0 0 0 0 0 -0 -0 -0 -0 0 0 0 0 0 0 0 0 0 0 0
0 0 0 0 0 0 0 0 0 0 0 0 -0 0 0 0 0 0 0 0 0 0 0 0 0 0 0 0 0 0 0 0 0 -0 0 -0 -0 -0 -0 0 0 0 0 0 0 0 0 0 0 0 0 0 0 0
0 0 0 0 0 0 0 0 0 0 0 0 0 0 0 -0 -0 -0 0 0 0 0 0 0 0 0 0 0 0 0 0 0 0 0 0 0 0 0 0 0 0 0 0 0 0 0 0 0 0 0 0 0 0 0
Wind_Speed_500mb
41 44 45 47 50 53 54 51 51 52 50 47 40 41 42 35 29 34 43 34 33 23 68 49 42 45 52 43 11 41 22 3 6 9 7 6 4 5 6 9 0 5 5 5 6 7 5 5 7 8 17 54 70 51
41 44 45 48 51 51 52 52 51 52 50 42 40 43 44 40 35 35 45 39 40 44 69 72 53 35 40 44 46 14 14 21 7 6 4 5 4 5 6 1 4 4 3 7 8 1 6 20 17 47 60 77 56 72
40 43 44 47 50 52 52 51 52 52 47 41 43 45 44 41 37 34 46 36 37 29 52 21 18 37 47 38 27 14 13 16 12 31 8 1 8 2 3 5 4 6 2 8 6 16 24 44 57 60 65 83 79 84
40 42 43 46 49 50 51 51 52 48 43 42 45 43 41 37 33 31 36 25 24 25 11 23 48 37 19 29 38 47 56 36 42 36 6 3 5 4 5 2 5 4 8 14 22 24 44 43 59 77 79 89 89 75
39 40 43 44 45 48 50 51 51 47 42 43 47 45 38 33 36 34 25 4 11 13 9 31 56 32 49 52 36 23 20 24 38 5 3 3 6 7 5 3 11 8 10 3 7 10 42 31 51 75 91 82 90 93
36 39 41 44 46 47 49 50 48 45 43 46 47 41 29 30 32 25 8 6 22 26 14 9 29 37 67 49 32 21 24 31 16 8 4 9 9 3 4 7 22 34 52 40 22 63 67 59 60 64 98 88 84 82
34 35 37 43 46 48 49 49 47 42 43 47 44 36 23 22 14 6 4 21 30 28 9 10 14 22 51 41 27 22 24 24 24 16 9 9 18 15 8 9 17 58 74 74 73 85 58 54 56 82 89 85 81 77
32 34 35 42 45 48 48 48 45 43 43 44 33 23 14 7 5 2 13 24 17 10 6 5 9 23 33 23 17 28 23 20 29 19 22 10 15 14 11 15 41 59 66 58 60 78 81 80 83 82 81 80 78 72
30 30 42 40 42 45 45 44 42 41 42 34 24 15 7 4 5 15 24 7 8 6 4 4 6 9 32 17 15 21 15 7 14 7 8 17 10 13 13 27 31 30 56 57 75 80 77 80 77 73 70 68 73 65
23 41 41 39 41 43 42 39 38 38 40 27 13 5 3 9 24 11 5 6 4 3 3 5 7 7 17 12 9 22 9 3 7 7 11 10 9 46 23 44 53 60 73 77 77 60 67 65 62 58 59 57 59 55
37 41 34 37 38 38 35 29 33 37 27 23 16 6 12 12 7 4 4 3 5 4 5 8 10 9 13 5 6 11 5 5 6 7 5 7 6 16 28 45 48 44 48 51 61 60 58 61 60 58 54 51 49 48
41 34 33 35 36 34 28 21 27 34 28 26 17 14 14 8 5 5 5 7 4 2 13 11 23 15 14 10 6 8 5 6 5 10 7 6 7 27 22 27 33 30 46 53 53 59 57 55 53 52 51 50 46 43
35 31 33 33 33 30 20 19 23 28 22 5 6 6 5 3 10 5 7 6 7 13 10 25 12 9 8 7 4 7 10 2 7 7 5 0 8 24 39 41 37 37 50 56 56 56 56 53 46 45 50 44 43 42
31 32 32 32 32 24 17 20 22 18 5 3 5 10 2 4 2 4 5 4 8 13 30 31 15 6 7 9 4 5 5 4 5 5 4 3 13 30 40 47 45 37 48 56 55 53 51 48 45 43 42 40 40 39
31 31 30 25 19 19 23 21 15 7 2 4 4 2 3 5 11 12 12 12 10 15 24 13 9 5 6 5 4 3 7 5 3 4 3 17 22 33 37 41 46 43 52 54 54 51 48 44 45 45 42 39 39 40
28 28 15 12 25 28 20 9 4 7 2 4 7 2 6 3 6 7 8 11 9 20 13 3 3 5 3 2 5 6 4 3 4 5 18 1 31 39 42 40 40 46 51 54 50 47 43 42 43 44 39 31 29 29
27 12 15 23 23 14 5 13 9 7 4 6 9 12 16 18 16 8 8 13 15 14 3 4 6 4 6 5 3 3 3 4 17 17 7 25 45 52 48 43 27 34 43 39 45 40 39 39 41 38 34 27 20 18
19 10 15 18 12 5 7 7 6 2 7 11 9 2 8 17 17 13 5 9 6 4 4 2 2 5 2 3 3 2 8 14 12 17 21 27 44 42 42 43 48 47 45 45 43 41 38 37 34 31 27 22 20 19
23 16 11 10 3 1 3 6 4 4 10 9 13 16 14 15 16 11 13 14 7 1 4 2 2 1 1 3 2 2 7 15 13 24 29 29 31 36 43 46 45 43 42 43 41 38 35 29 27 27 26 24 20 23
8 4 4 3 6 1 3 1 5 7 7 4 11 12 10 11 5 8 4 5 4 4 4 3 2 5 11 15 11 9 5 0 13 20 25 24 25 36 40 39 42 42 42 39 36 33 33 30 27 22 23 28 28 30
5 2 3 7 3 2 4 4 7 8 7 7 10 9 7 7 12 7 9 7 5 3 1 3 6 15 9 7 12 16 12 11 19 15 17 26 27 32 38 42 42 41 39 39 38 35 29 25 29 31 27 22 18 17
10 4 5 3 1 3 6 9 8 7 6 8 11 6 7 5 7 7 11 4 6 2 3 1 2 9 11 8 5 8 12 19 18 18 19 28 35 33 39 42 30 36 34 33 30 25 27 30 28 24 19 15 14 16
7 5 5 1 1 3 6 6 6 5 2 4 4 4 5 3 2 16 3 4 6 4 2 4 5 3 7 13 13 13 18 22 20 26 21 23 36 34 42 24 27 34 33 31 23 21 29 22 24 22 18 15 16 22
6 6 4 2 4 7 6 6 6 4 4 3 2 6 2 4 14 1 2 3 8 2 9 4 4 10 10 6 8 13 16 20 21 18 21 30 39 33 30 29 21 29 22 24 25 23 23 17 15 19 20 17 11 12
3 4 4 4 7 4 5 3 2 3 4 3 3 4 3 7 3 1 1 2 7 4 6 6 3 9 10 7 13 20 21 21 21 13 17 26 30 34 32 28 24 28 30 26 24 23 23 21 18 16 20 16 11 14
3 6 8 4 4 5 2 3 3 5 3 4 5 3 2 3 2 1 4 3 4 7 8 5 9 9 11 8 6 20 19 22 26 22 19 23 36 38 31 26 25 28 29 27 24 23 23 25 25 23 22 18 15 15
1 4 6 8 6 9 7 7 13 4 4 4 4 3 1 3 1 2 6 4 6 9 9 6 6 11 12 12 1 7 18 20 19 20 28 29 26 31 37 31 31 23 22 26 24 27 22 19 26 28 24 22 20 19
5 5 4 3 7 7 4 4 2 2 3 5 4 2 4 3 3 4 6 7 7 10 7 5 7 7 13 11 12 10 17 19 10 15 22 41 41 32 27 28 32 31 30 25 20 19 21 29 28 26 27 25 21 19
6 7 5 7 7 6 6 4 2 4 3 4 2 1 2 3 5 6 4 1 4 7 11 15 18 8 15 19 18 24 33 26 25 26 22 26 35 40 36 27 20 16 14 22 24 20 19 21 19 22 26 28 26 23
7 14 6 6 4 5 6 4 3 1 2 4 5 3 2 5 6 5 9 12 9 8 12 17 19 11 5 11 15 24 35 33 29 24 22 18 19 20 20 20 19 20 20 20 21 22 26 28 28 31 35 33 28 24
3 5 5 5 5 6 10 7 11 7 5 4 10 10 6 5 6 6 7 14 13 14 15 15 14 10 9 19 16 17 20 33 32 28 21 14 10 20 20 22 24 24 27 28 27 29 31 37 37 34 31 32 31 27
8 12 5 3 5 4 2 8 8 8 6 2 4 4 1 4 6 4 3 5 6 8 9 12 14 10 10 21 38 20 3 17 22 21 15 12 9 9 12 17 21 21 21 20 18 15 14 16 22 28 29 23 16 13
6 9 10 7 5 5 10 9 7 4 5 6 7 6 2 1 1 3 3 5 6 6 6 7 6 3 14 16 32 40 12 14 19 12 16 20 17 13 17 18 19 18 16 20 21 25 21 16 19 15 11 15 13 12
Wind_Direction_500mb
305 310 317 322 327 329 329 333 333 335 336 335 338 336 335 339 335 328 317 326 321 272 290 286 298 283 286 290 282 304 314 26 297 356 354 341 316 345 305 325 347 47 82 56 80 94 95 352 65 142 131 124 131 140
303 309 317 322 325 327 328 329 332 332 334 335 339 337 333 333 329 327 314 323 322 291 283 304 303 294 277 284 275 293 267 292 298 321 311 305 301 311 327 121 311 57 110 110 53 64 344 35 78 119 127 122 119 120
299 306 316 322 326 328 329 332 333 331 333 335 337 336 333 329 327 321 311 325 327 293 314 319 322 319 310 299 287 264 297 295 271 301 289 292 268 275 256 238 141 80 38 79 104 31 73 84 87 102 119 119 124 128
297 307 316 324 325 326 328 332 330 330 333 334 334 333 331 331 330 322 310 325 314 299 301 293 322 331 321 317 303 291 285 306 309 288 250 228 257 266 263 358 71 22 52 110 91 95 77 74 101 110 111 116 116 118
298 309 317 320 323 325 328 330 328 329 332 334 332 328 327 325 329 330 319 304 308 326 287 293 318 345 348 343 339 339 316 320 315 279 256 256 244 242 261 23 34 344 144 99 111 98 104 105 111 117 114 115 125 131
299 309 314 320 322 324 326 329 327 329 330 331 329 323 318 317 326 336 6 30 341 330 321 306 316 317 354 359 0 26 15 344 330 296 297 249 245 242 53 64 17 64 87 97 106 101 101 104 102 112 119 124 129 126
293 303 313 317 318 322 326 326 325 328 329 330 327 320 312 312 323 359 349 317 326 318 302 295 297 309 337 345 344 359 2 351 347 331 328 317 356 23 41 51 53 80 90 95 104 110 93 102 104 119 121 123 124 122
291 299 311 313 317 321 324 325 325 326 331 333 331 327 323 320 352 73 334 328 330 312 308 307 286 317 345 329 332 349 345 356 9 351 352 4 9 35 60 102 87 88 91 96 114 115 113 117 120 119 120 122 118 117
284 303 301 310 315 320 323 326 323 327 335 336 329 320 302 323 338 321 328 343 340 309 304 287 300 309 330 325 326 332 0 352 328 37 4 3 352 45 92 99 73 104 107 107 106 112 119 116 118 123 124 121 118 120
285 284 298 312 315 320 324 326 322 334 340 341 336 288 255 317 322 340 9 330 313 282 289 258 281 290 318 321 319 347 5 38 5 3 6 25 25 63 83 101 110 114 123 128 119 110 120 117 121 123 120 120 118 120
274 289 305 309 313 318 326 324 330 341 354 359 347 319 329 334 349 331 335 356 346 3 295 296 294 295 315 325 295 359 310 336 45 326 66 9 43 62 97 115 117 120 124 129 126 129 129 128 130 127 125 123 121 121
283 293 305 310 312 319 321 316 331 336 349 339 323 328 345 11 352 26 345 343 341 309 322 313 313 303 297 311 321 359 344 359 45 326 55 30 1 111 116 126 130 131 132 129 130 129 130 130 128 126 127 126 126 123
288 302 307 306 310 314 302 306 321 321 335 356 317 320 337 356 23 49 347 325 338 328 327 330 322 309 306 329 322 357 22 347 326 41 70 353 16 128 128 134 131 140 134 129 129 129 128 124 123 123 127 130 128 123
298 305 303 308 309 300 297 307 313 319 348 291 264 325 172 326 295 191 209 251 274 279 320 325 305 322 324 351 335 24 325 42 58 59 48 359 105 146 141 142 150 153 146 141 137 136 132 129 128 127 123 125 125 125
303 303 311 309 299 298 300 302 292 258 263 246 251 259 243 231 271 258 280 288 283 305 321 315 303 317 315 333 4 332 20 55 47 230 325 11 143 149 149 148 152 153 153 148 144 141 137 136 132 128 125 120 124 120
300 315 307 296 308 312 297 296 164 155 232 251 238 264 236 310 296 316 297 308 324 330 329 322 324 337 324 325 14 29 9 357 305 270 307 93 153 144 141 142 139 149 152 147 149 147 142 137 132 129 132 123 120 122
301 318 291 306 316 309 271 157 162 219 229 239 250 244 259 281 273 277 325 310 313 329 354 339 330 28 307 344 56 34 26 336 271 302 140 162 155 146 139 141 154 151 145 158 155 152 146 141 141 145 149 152 143 143
311 326 306 310 324 138 148 177 203 226 254 254 255 297 250 270 274 261 248 340 305 307 305 330 297 29 357 358 350 46 48 1 21 84 140 163 161 162 161 156 154 156 158 160 160 156 153 153 157 159 155 155 162 176
313 316 297 283 325 261 167 185 187 246 253 274 276 283 291 294 296 269 260 298 227 300 326 269 258 352 126 218 181 341 26 360 24 76 140 137 151 156 160 163 167 170 170 167 164 163 161 159 153 154 157 150 144 146
318 67 60 12 137 83 301 283 219 260 264 272 275 285 291 290 68 265 233 156 172 115 51 35 284 311 283 289 297 293 317 281 157 96 108 154 168 172 170 171 168 164 159 160 162 162 159 162 160 155 144 140 134 138
138 145 74 118 110 170 252 265 245 247 279 270 296 306 284 208 219 243 209 153 85 65 230 339 325 335 334 292 241 236 226 176 169 170 129 136 157 165 162 161 157 156 154 157 160 165 171 171 159 151 148 149 144 135
167 162 139 107 212 221 270 239 252 292 270 279 294 243 251 239 228 204 159 121 126 163 150 34 34 37 59 51 107 120 161 168 164 153 163 173 160 168 172 153 154 172 165 165 164 164 163 159 160 163 169 180 199 202
145 134 129 173 291 247 268 235 256 237 222 279 289 283 240 223 172 153 82 104 129 144 143 341 190 170 64 82 88 96 126 144 152 170 168 167 170 182 159 138 156 187 176 173 168 163 170 179 193 200 205 216 225 221
132 139 185 177 241 267 295 245 237 262 273 289 252 277 147 140 156 7 120 148 153 161 318 252 184 183 155 136 124 117 140 158 164 157 190 193 186 183 192 188 182 191 180 174 179 183 189 197 204 208 210 207 211 198
118 162 206 256 229 266 260 263 300 26 264 236 255 273 198 169 110 79 296 244 213 222 354 208 176 172 176 174 174 176 181 169 168 164 161 161 170 173 180 196 206 203 194 194 200 207 212 218 217 207 201 209 197 189
135 206 176 237 204 179 277 249 252 262 281 263 248 279 173 113 129 194 219 206 277 319 320 219 201 187 172 126 144 181 192 205 209 217 209 199 201 194 198 205 205 208 211 215 222 223 223 223 221 213 214 214 216 230
213 283 243 243 260 267 280 225 224 224 256 236 303 335 169 185 166 206 141 109 75 49 54 41 229 228 219 207 193 191 187 185 198 208 220 203 213 208 214 222 217 217 226 230 234 231 227 221 234 220 222 222 237 254
230 269 224 319 294 242 263 298 271 73 277 320 316 12 23 40 250 77 93 104 77 46 48 22 22 233 239 233 216 246 206 194 213 230 204 195 213 213 207 221 235 245 250 245 217 238 238 240 238 235 227 231 244 257
244 232 246 278 265 254 230 246 263 212 243 323 129 50 51 93 116 110 114 243 331 350 359 0 350 311 241 232 211 191 188 171 158 147 155 189 216 230 243 223 216 228 200 201 212 221 216 225 236 239 239 245 244 238
249 197 215 248 232 236 216 249 270 177 178 25 22 352 300 224 218 270 291 279 276 289 317 324 326 326 273 184 156 195 193 190 194 199 192 198 184 181 184 201 190 186 195 206 214 217 219 225 237 240 241 239 230 221
271 190 230 247 265 259 271 290 203 240 230 309 334 340 308 248 232 277 269 282 285 284 295 306 302 289 242 191 174 166 202 207 212 226 248 279 224 218 222 215 214 218 226 230 235 240 244 244 245 246 233 221 217 232
201 203 180 298 273 257 289 198 214 211 196 44 303 283 223 244 222 233 296 297 284 291 302 306 297 266 254 201 189 189 209 194 204 208 216 213 203 212 216 219 223 229 232 229 226 225 225 225 202 186 204 223 250 210
214 207 210 251 257 248 211 193 200 210 227 245 232 239 253 253 307 222 298 298 303 294 310 337 348 297 210 187 197 203 221 200 197 210 228 215 208 216 206 184 175 179 205 244 259 272 261 239 234 227 186 187 197 208
Wind_Speed_850mb
41 44 45 47 50 53 54 51 51 52 50 47 40 41 42 35 29 34 43 34 33 23 68 49 42 45 52 43 11 41 22 3 6 9 7 6 4 5 6 9 0 5 5 5 6 7 5 5 7 8 17 54 70 51
41 44 45 48 51 51 52 52 51 52 50 42 40 43 44 40 35 35 45 39 40 44 69 72 53 35 40 44 46 14 14 21 7 6 4 5 4 5 6 1 4 4 3 7 8 1 6 20 17 47 60 77 56 72
40 43 44 47 50 52 52 51 52 52 47 41 43 45 44 41 37 34 46 36 37 29 52 21 18 37 47 38 27 14 13 16 12 31 8 1 8 2 3 5 4 6 2 8 6 16 24 44 57 60 65 83 79 84
40 42 43 46 49 50 51 51 52 48 43 42 45 43 41 37 33 31 36 25 24 25 11 23 48 37 19 29 38 47 56 36 42 36 6 3 5 4 5 2 5 4 8 14 22 24 44 43 59 77 79 89 89 75
39 40 43 44 45 48 50 51 51 47 42 43 47 45 38 33 36 34 25 4 11 13 9 31 56 32 49 52 36 23 20 24 38 5 3 3 6 7 5 3 11 8 10 3 7 10 42 31 51 75 91 82 90 93
36 39 41 44 46 47 49 50 48 45 43 46 47 41 29 30 32 25 8 6 22 26 14 9 29 37 67 49 32 21 24 31 16 8 4 9 9 3 4 7 22 34 52 40 22 63 67 59 60 64 98 88 84 82
34 35 37 43 46 48 49 49 47 42 43 47 44 36 23 22 14 6 4 21 30 28 9 10 14 22 51 41 27 22 24 24 24 16 9 9 18 15 8 9 17 58 74 74 73 85 58 54 56 82 89 85 81 77
32 34 35 42 45 48 48 48 45 43 43 44 33 23 14 7 5 2 13 24 17 10 6 5 9 23 33 23 17 28 23 20 29 19 22 10 15 14 11 15 41 59 66 58 60 78 81 80 83 82 81 80 78 72
30 30 42 40 42 45 45 44 42 41 42 34 24 15 7 4 5 15 24 7 8 6 4 4 6 9 32 17 15 21 15 7 14 7 8 17 10 13 13 27 31 30 56 57 75 80 77 80 77 73 70 68 73 65
23 41 41 39 41 43 42 39 38 38 40 27 13 5 3 9 24 11 5 6 4 3 3 5 7 7 17 12 9 22 9 3 7 7 11 10 9 46 23 44 53 60 73 77 77 60 67 65 62 58 59 57 59 55
37 41 34 37 38 38 35 29 33 37 27 23 16 6 12 12 7 4 4 3 5 4 5 8 10 9 13 5 6 11 5 5 6 7 5 7 6 16 28 45 48 44 48 51 61 60 58 61 60 58 54 51 49 48
41 34 33 35 36 34 28 21 27 34 28 26 17 14 14 8 5 5 5 7 4 2 13 11 23 15 14 10 6 8 5 6 5 10 7 6 7 27 22 27 33 30 46 53 53 59 57 55 53 52 51 50 46 43
35 31 33 33 33 30 20 19 23 28 22 5 6 6 5 3 10 5 7 6 7 13 10 25 12 9 8 7 4 7 10 2 7 7 5 0 8 24 39 41 37 37 50 56 56 56 56 53 46 45 50 44 43 42
31 32 32 32 32 24 17 20 22 18 5 3 5 10 2 4 2 4 5 4 8 13 30 31 15 6 7 9 4 5 5 4 5 5 4 3 13 30 40 47 45 37 48 56 55 53 51 48 45 43 42 40 40 39
31 31 30 25 19 19 23 21 15 7 2 4 4 2 3 5 11 12 12 12 10 15 24 13 9 5 6 5 4 3 7 5 3 4 3 17 22 33 37 41 46 43 52 54 54 51 48 44 45 45 42 39 39 40
28 28 15 12 25 28 20 9 4 7 2 4 7 2 6 3 6 7 8 11 9 20 13 3 3 5 3 2 5 6 4 3 4 5 18 1 31 39 42 40 40 46 51 54 50 47 43 42 43 44 39 31 29 29
27 12 15 23 23 14 5 13 9 7 4 6 9 12 16 18 16 8 8 13 15 14 3 4 6 4 6 5 3 3 3 4 17 17 7 25 45 52 48 43 27 34 43 39 45 40 39 39 41 38 34 27 20 18
19 10 15 18 12 5 7 7 6 2 7 11 9 2 8 17 17 13 5 9 6 4 4 2 2 5 2 3 3 2 8 14 12 17 21 27 44 42 42 43 48 47 45 45 43 41 38 37 34 31 27 22 20 19
23 16 11 10 3 1 3 6 4 4 10 9 13 16 14 15 16 11 13 14 7 1 4 2 2 1 1 3 2 2 7 15 13 24 29 29 31 36 43 46 45 43 42 43 41 38 35 29 27 27 26 24 20 23
8 4 4 3 6 1 3 1 5 7 7 4 11 12 10 11 5 8 4 5 4 4 4 3 2 5 11 15 11 9 5 0 13 20 25 24 25 36 40 39 42 42 42 39 36 33 33 30 27 22 23 28 28 30
5 2 3 7 3 2 4 4 7 8 7 7 10 9 7 7 12 7 9 7 5 3 1 3 6 15 9 7 12 16 12 11 19 15 17 26 27 32 38 42 42 41 39 39 38 35 29 25 29 31 27 22 18 17
10 4 5 3 1 3 6 9 8 7 6 8 11 6 7 5 7 7 11 4 6 2 3 1 2 9 11 8 5 8 12 19 18 18 19 28 35 33 39 42 30 36 34 33 30 25 27 30 28 24 19 15 14 16
7 5 5 1 1 3 6 6 6 5 2 4 4 4 5 3 2 16 3 4 6 4 2 4 5 3 7 13 13 13 18 22 20 26 21 23 36 34 42 24 27 34 33 31 23 21 29 22 24 22 18 15 16 22
6 6 4 2 4 7 6 6 6 4 4 3 2 6 2 4 14 1 2 3 8 2 9 4 4 10 10 6 8 13 16 20 21 18 21 30 39 33 30 29 21 29 22 24 25 23 23 17 15 19 20 17 11 12
3 4 4 4 7 4 5 3 2 3 4 3 3 4 3 7 3 1 1 2 7 4 6 6 3 9 10 7 13 20 21 21 21 13 17 26 30 34 32 28 24 28 30 26 24 23 23 21 18 16 20 16 11 14
3 6 8 4 4 5 2 3 3 5 3 4 5 3 2 3 2 1 4 3 4 7 8 5 9 9 11 8 6 20 19 22 26 22 19 23 36 38 31 26 25 28 29 27 24 23 23 25 25 23 22 18 15 15
1 4 6 8 6 9 7 7 13 4 4 4 4 3 1 3 1 2 6 4 6 9 9 6 6 11 12 12 1 7 18 20 19 20 28 29 26 31 37 31 31 23 22 26 24 27 22 19 26 28 24 22 20 19
5 5 4 3 7 7 4 4 2 2 3 5 4 2 4 3 3 4 6 7 7 10 7 5 7 7 13 11 12 10 17 19 10 15 22 41 41 32 27 28 32 31 30 25 20 19 21 29 28 26 27 25 21 19
6 7 5 7 7 6 6 4 2 4 3 4 2 1 2 3 5 6 4 1 4 7 11 15 18 8 15 19 18 24 33 26 25 26 22 26 35 40 36 27 20 16 14 22 24 20 19 21 19 22 26 28 26 23
7 14 6 6 4 5 6 4 3 1 2 4 5 3 2 5 6 5 9 12 9 8 12 17 19 11 5 11 15 24 35 33 29 24 22 18 19 20 20 20 19 20 20 20 21 22 26 28 28 31 35 33 28 24
3 5 5 5 5 6 10 7 11 7 5 4 10 10 6 5 6 6 7 14 13 14 15 15 14 10 9 19 16 17 20 33 32 28 21 14 10 20 20 22 24 24 27 28 27 29 31 37 37 34 31 32 31 27
8 12 5 3 5 4 2 8 8 8 6 2 4 4 1 4 6 4 3 5 6 8 9 12 14 10 10 21 38 20 3 17 22 21 15 12 9 9 12 17 21 21 21 20 18 15 14 16 22 28 29 23 16 13
6 9 10 7 5 5 10 9 7 4 5 6 7 6 2 1 1 3 3 5 6 6 6 7 6 3 14 16 32 40 12 14 19 12 16 20 17 13 17 18 19 18 16 20 21 25 21 16 19 15 11 15 13 12
Wind_Direction_850mb
305 310 317 322 327 329 329 333 333 335 336 335 338 336 335 339 335 328 317 326 321 272 290 286 298 283 286 290 282 304 314 26 297 356 354 341 316 345 305 325 347 47 82 56 80 94 95 352 65 142 131 124 131 140
303 309 317 322 325 327 328 329 332 332 334 335 339 337 333 333 329 327 314 323 322 291 283 304 303 294 277 284 275 293 267 292 298 321 311 305 301 311 327 121 311 57 110 110 53 64 344 35 78 119 127 122 119 120
299 306 316 322 326 328 329 332 333 331 333 335 337 336 333 329 327 321 311 325 327 293 314 319 322 319 310 299 287 264 297 295 271 301 289 292 268 275 256 238 141 80 38 79 104 31 73 84 87 102 119 119 124 128
297 307 316 324 325 326 328 332 330 330 333 334 334 333 331 331 330 322 310 325 314 299 301 293 322 331 321 317 303 291 285 306 309 288 250 228 257 266 263 358 71 22 52 110 91 95 77 74 101 110 111 116 116 118
298 309 317 320 323 325 328 330 328 329 332 334 332 328 327 325 329 330 319 304 308 326 287 293 318 345 348 343 339 339 316 320 315 279 256 256 244 242 261 23 34 344 144 99 111 98 104 105 111 117 114 115 125 131
299 309 314 320 322 324 326 329 327 329 330 331 329 323 318 317 326 336 6 30 341 330 321 306 316 317 354 359 0 26 15 344 330 296 297 249 245 242 53 64 17 64 87 97 106 101 101 104 102 112 119 124 129 126
293 303 313 317 318 322 326 326 325 328 329 330 327 320 312 312 323 359 349 317 326 318 302 295 297 309 337 345 344 359 2 351 347 331 328 317 356 23 41 51 53 80 90 95 104 110 93 102 104 119 121 123 124 122
291 299 311 313 317 321 324 325 325 326 331 333 331 327 323 320 352 73 334 328 330 312 308 307 286 317 345 329 332 349 345 356 9 351 352 4 9 35 60 102 87 88 91 96 114 115 113 117 120 119 120 122 118 117
284 303 301 310 315 320 323 326 323 327 335 336 329 320 302 323 338 321 328 343 340 309 304 287 300 309 330 325 326 332 0 352 328 37 4 3 352 45 92 99 73 104 107 107 106 112 119 116 118 123 124 121 118 120
285 284 298 312 315 320 324 326 322 334 340 341 336 288 255 317 322 340 9 330 313 282 289 258 281 290 318 321 319 347 5 38 5 3 6 25 25 63 83 101 110 114 123 128 119 110 120 117 121 123 120 120 118 120
274 289 305 309 313 318 326 324 330 341 354 359 347 319 329 334 349 331 335 356 346 3 295 296 294 295 315 325 295 359 310 336 45 326 66 9 43 62 97 115 117 120 124 129 126 129 129 128 130 127 125 123 121 121
283 293 305 310 312 319 321 316 331 336 349 339 323 328 345 11 352 26 345 343 341 309 322 313 313 303 297 311 321 359 344 359 45 326 55 30 1 111 116 126 130 131 132 129 130 129 130 130 128 126 127 126 126 123
288 302 307 306 310 314 302 306 321 321 335 356 317 320 337 356 23 49 347 325 338 328 327 330 322 309 306 329 322 357 22 347 326 41 70 353 16 128 128 134 131 140 134 129 129 129 128 124 123 123 127 130 128 123
298 305 303 308 309 300 297 307 313 319 348 291 264 325 172 326 295 191 209 251 274 279 320 325 305 322 324 351 335 24 325 42 58 59 48 359 105 146 141 142 150 153 146 141 137 136 132 129 128 127 123 125 125 125
303 303 311 309 299 298 300 302 292 258 263 246 251 259 243 231 271 258 280 288 283 305 321 315 303 317 315 333 4 332 20 55 47 230 325 11 143 149 149 148 152 153 153 148 144 141 137 136 132 128 125 120 124 120
300 315 307 296 308 312 297 296 164 155 232 251 238 264 236 310 296 316 297 308 324 330 329 322 324 337 324 325 14 29 9 357 305 270 307 93 153 144 141 142 139 149 152 147 149 147 142 137 132 129 132 123 120 122
301 318 291 306 316 309 271 157 162 219 229 239 250 244 259 281 273 277 325 310 313 329 354 339 330 28 307 344 56 34 26 336 271 302 140 162 155 146 139 141 154 151 145 158 155 152 146 141 141 145 149 152 143 143
311 326 306 310 324 138 148 177 203 226 254 254 255 297 250 270 274 261 248 340 305 307 305 330 297 29 357 358 350 46 48 1 21 84 140 163 161 162 161 156 154 156 158 160 160 156 153 153 157 159 155 155 162 176
313 316 297 283 325 261 167 185 187 246 253 274 276 283 291 294 296 269 260 298 227 300 326 269 258 352 126 218 181 341 26 360 24 76 140 137 151 156 160 163 167 170 170 167 164 163 161 159 153 154 157 150 144 146
318 67 60 12 137 83 301 283 219 260 264 272 275 285 291 290 68 265 233 156 172 115 51 35 284 311 283 289 297 293 317 281 157 96 108 154 168 172 170 171 168 164 159 160 162 162 159 162 160 155 144 140 134 138
138 145 74 118 110 170 252 265 245 247 279 270 296 306 284 208 219 243 209 153 85 65 230 339 325 335 334 292 241 236 226 176 169 170 129 136 157 165 162 161 157 156 154 157 160 165 171 171 159 151 148 149 144 135
167 162 139 107 212 221 270 239 252 292 270 279 294 243 251 239 228 204 159 121 126 163 150 34 34 37 59 51 107 120 161 168 164 153 163 173 160 168 172 153 154 172 165 165 164 164 163 159 160 163 169 180 199 202
145 134 129 173 291 247 268 235 256 237 222 279 289 283 240 223 172 153 82 104 129 144 143 341 190 170 64 82 88 96 126 144 152 170 168 167 170 182 159 138 156 187 176 173 168 163 170 179 193 200 205 216 225 221
132 139 185 177 241 267 295 245 237 262 273 289 252 277 147 140 156 7 120 148 153 161 318 252 184 183 155 136 124 117 140 158 164 157 190 193 186 183 192 188 182 191 180 174 179 183 189 197 204 208 210 207 211 198
118 162 206 256 229 266 260 263 300 26 264 236 255 273 198 169 110 79 296 244 213 222 354 208 176 172 176 174 174 176 181 169 168 164 161 161 170 173 180 196 206 203 194 194 200 207 212 218 217 207 201 209 197 189
135 206 176 237 204 179 277 249 252 262 281 263 248 279 173 113 129 194 219 206 277 319 320 219 201 187 172 126 144 181 192 205 209 217 209 199 201 194 198 205 205 208 211 215 222 223 223 223 221 213 214 214 216 230
213 283 243 243 260 267 280 225 224 224 256 236 303 335 169 185 166 206 141 109 75 49 54 41 229 228 219 207 193 191 187 185 198 208 220 203 213 208 214 222 217 217 226 230 234 231 227 221 234 220 222 222 237 254
230 269 224 319 294 242 263 298 271 73 277 320 316 12 23 40 250 77 93 104 77 46 48 22 22 233 239 233 216 246 206 194 213 230 204 195 213 213 207 221 235 245 250 245 217 238 238 240 238 235 227 231 244 257
244 232 246 278 265 254 230 246 263 212 243 323 129 50 51 93 116 110 114 243 331 350 359 0 350 311 241 232 211 191 188 171 158 147 155 189 216 230 243 223 216 228 200 201 212 221 216 225 236 239 239 245 244 238
249 197 215 248 232 236 216 249 270 177 178 25 22 352 300 224 218 270 291 279 276 289 317 324 326 326 273 184 156 195 193 190 194 199 192 198 184 181 184 201 190 186 195 206 214 217 219 225 237 240 241 239 230 221
271 190 230 247 265 259 271 290 203 240 230 309 334 340 308 248 232 277 269 282 285 284 295 306 302 289 242 191 174 166 202 207 212 226 248 279 224 218 222 215 214 218 226 230 235 240 244 244 245 246 233 221 217 232
201 203 180 298 273 257 289 198 214 211 196 44 303 283 223 244 222 233 296 297 284 291 302 306 297 266 254 201 189 189 209 194 204 208 216 213 203 212 216 219 223 229 232 229 226 225 225 225 202 186 204 223 250 210
214 207 210 251 257 248 211 193 200 210 227 245 232 239 253 253 307 222 298 298 303 294 310 337 348 297 210 187 197 203 221 200 197 210 228 215 208 216 206 184 175 179 205 244 259 272 261 239 234 227 186 187 197 208